When you browse on this site, cookies collect data to enhance your experience and personalize the content and advertising you see.
Visit our Privacy Policy to learn more. By continuing to use the site, you agree to this use of cookies and data.
  • In Germany
  • List of Countries
  • For 7 days
  • Water Temperature
  • Satellite Maps
  • Weather Map
  • Weather Widgets
  • user-avatar
    Login

    Hourly Weather Bad Königshofen im Grabfeld

    Today, 19 November, Monday

    Time Temperature Precipitation Wind Pressure Humidity
    00:00 -2°C° 0 mm 4 mps 741 mmHg 72%
    01:00 -1°C° 0 mm 4 mps 740 mmHg 80%
    02:00 -1°C° 0.1 mm 4 mps 740 mmHg 81%
    03:00 0°C° 0.1 mm 4 mps 739 mmHg 83%
    04:00 0°C° 0.1 mm 4 mps 739 mmHg 84%
    05:00 0°C° 0.2 mm 4 mps 739 mmHg 84%
    06:00 0°C° 0.2 mm 4 mps 738 mmHg 84%
    07:00 0°C° 0.2 mm 4 mps 738 mmHg 84%
    08:00 +1°C° 0.1 mm 5 mps 738 mmHg 81%
    09:00 +1°C° 0.1 mm 6 mps 738 mmHg 77%
    10:00 +1°C° 0.1 mm 6 mps 738 mmHg 74%
    11:00 +1°C° 0.1 mm 6 mps 737 mmHg 72%
    12:00 +1°C° 0.1 mm 6 mps 737 mmHg 69%
    13:00 +2°C° 0.1 mm 7 mps 736 mmHg 66%
    14:00 +1°C° 0.1 mm 6 mps 736 mmHg 68%
    15:00 +1°C° 0.1 mm 6 mps 736 mmHg 69%
    16:00 +1°C° 0.1 mm 6 mps 735 mmHg 70%
    17:00 -1°C° 0 mm 6 mps 735 mmHg 71%
    18:00 -1°C° 0 mm 6 mps 735 mmHg 72%
    19:00 -1°C° 0 mm 6 mps 735 mmHg 73%
    20:00 -2°C° 0 mm 6 mps 735 mmHg 74%
    21:00 -2°C° 0 mm 6 mps 735 mmHg 75%
    22:00 -3°C° 0 mm 6 mps 734 mmHg 77%
    23:00 -3°C° 0 mm 6 mps 734 mmHg 77%

    Tomorrow, 20 November, Tuesday

    Time Temperature Precipitation Wind Pressure Humidity
    00:00 -3°C° 0 mm 6 mps 734 mmHg 77%
    01:00 -2°C° 0 mm 5 mps 734 mmHg 77%
    02:00 -3°C° 0 mm 6 mps 733 mmHg 77%
    03:00 -2°C° 0 mm 6 mps 733 mmHg 76%
    04:00 -2°C° 0 mm 6 mps 732 mmHg 76%
    05:00 -2°C° 0 mm 6 mps 732 mmHg 76%
    06:00 -1°C° 0 mm 5 mps 732 mmHg 77%
    07:00 -1°C° 0 mm 5 mps 731 mmHg 77%
    08:00 -1°C° 0.3 mm 5 mps 731 mmHg 78%
    09:00 0°C° 0.3 mm 5 mps 731 mmHg 79%
    10:00 0°C° 0.3 mm 5 mps 731 mmHg 80%
    11:00 +1°C° 0.5 mm 5 mps 731 mmHg 80%
    12:00 +1°C° 0.5 mm 5 mps 731 mmHg 80%
    13:00 +1°C° 0.5 mm 5 mps 731 mmHg 79%
    14:00 +1°C° 0.1 mm 4 mps 731 mmHg 81%
    15:00 +1°C° 0.1 mm 4 mps 731 mmHg 82%
    16:00 +2°C° 0.1 mm 3 mps 731 mmHg 84%
    17:00 +1°C° 0 mm 3 mps 731 mmHg 87%
    18:00 0°C° 0 mm 3 mps 731 mmHg 90%
    19:00 0°C° 0 mm 3 mps 732 mmHg 93%
    20:00 -1°C° 0 mm 2 mps 732 mmHg 94%
    21:00 -1°C° 0 mm 2 mps 733 mmHg 94%
    22:00 -1°C° 0 mm 2 mps 733 mmHg 95%
    23:00 -2°C° 0 mm 2 mps 733 mmHg 95%

    Day after tomorrow, 21 November, Wednesday

    Time Temperature Precipitation Wind Pressure Humidity
    00:00 -2°C° 0 mm 2 mps 734 mmHg 95%
    01:00 -2°C° 0 mm 2 mps 734 mmHg 95%
    02:00 -2°C° 0 mm 2 mps 734 mmHg 95%
    03:00 -2°C° 0 mm 2 mps 734 mmHg 95%
    04:00 -2°C° 0 mm 2 mps 734 mmHg 95%
    05:00 -2°C° 0 mm 2 mps 734 mmHg 94%
    06:00 -2°C° 0 mm 2 mps 735 mmHg 94%
    07:00 -2°C° 0 mm 3 mps 735 mmHg 93%
    08:00 0°C° 0 mm 3 mps 735 mmHg 90%
    09:00 +1°C° 0 mm 3 mps 736 mmHg 86%
    10:00 +2°C° 0 mm 3 mps 736 mmHg 82%
    11:00 +3°C° 0 mm 3 mps 736 mmHg 81%
    12:00 +4°C° 0 mm 3 mps 736 mmHg 79%
    13:00 +5°C° 0 mm 4 mps 736 mmHg 78%
    14:00 +4°C° 0 mm 4 mps 736 mmHg 81%
    15:00 +3°C° 0 mm 4 mps 736 mmHg 84%
    16:00 +3°C° 0 mm 4 mps 736 mmHg 88%
    17:00 +2°C° 0 mm 3 mps 737 mmHg 89%
    18:00 +2°C° 0 mm 3 mps 737 mmHg 90%
    19:00 +2°C° 0 mm 3 mps 737 mmHg 92%
    20:00 +2°C° 0 mm 3 mps 738 mmHg 92%
    21:00 +2°C° 0 mm 3 mps 738 mmHg 92%
    22:00 +2°C° 0 mm 3 mps 738 mmHg 92%
    23:00 +3°C° 0 mm 2 mps 738 mmHg 93%

    22 November, Thursday

    Time Temperature Precipitation Wind Pressure Humidity
    00:00 +3°C° 0 mm 2 mps 738 mmHg 93%
    01:00 +3°C° 0 mm 2 mps 738 mmHg 93%
    02:00 +3°C° 0 mm 2 mps 738 mmHg 94%
    03:00 +4°C° 0 mm 1 mps 739 mmHg 94%
    04:00 +4°C° 0 mm 1 mps 739 mmHg 94%
    05:00 +4°C° 0 mm 1 mps 739 mmHg 95%
    06:00 +3°C° 0 mm 1 mps 739 mmHg 95%
    07:00 +3°C° 0 mm 1 mps 739 mmHg 96%
    08:00 +4°C° 0 mm 1 mps 740 mmHg 93%
    09:00 +4°C° 0 mm 1 mps 740 mmHg 91%
    10:00 +5°C° 0 mm 1 mps 741 mmHg 89%
    11:00 +5°C° 0 mm 1 mps 741 mmHg 86%
    12:00 +6°C° 0 mm 1 mps 741 mmHg 83%
    13:00 +7°C° 0 mm 1 mps 741 mmHg 80%
    14:00 +6°C° 0 mm 1 mps 741 mmHg 83%
    15:00 +6°C° 0 mm 1 mps 741 mmHg 85%
    16:00 +5°C° 0 mm 1 mps 741 mmHg 87%
    17:00 +5°C° 0 mm 1 mps 741 mmHg 89%
    18:00 +4°C° 0 mm 1 mps 742 mmHg 91%
    19:00 +3°C° 0 mm 1 mps 742 mmHg 93%
    20:00 +3°C° 0 mm 1 mps 742 mmHg 93%
    21:00 +3°C° 0 mm 1 mps 742 mmHg 93%
    22:00 +2°C° 0 mm 1 mps 743 mmHg 93%
    23:00 +2°C° 0 mm 1 mps 743 mmHg 93%

    23 November, Friday

    Time Temperature Precipitation Wind Pressure Humidity
    00:00 +2°C° 0 mm 1 mps 743 mmHg 93%
    01:00 +2°C° 0 mm 1 mps 743 mmHg 93%
    02:00 +2°C° 0 mm 1 mps 743 mmHg 93%
    03:00 +2°C° 0 mm 1 mps 743 mmHg 94%
    04:00 +1°C° 0 mm 1 mps 743 mmHg 94%
    05:00 +1°C° 0 mm 1 mps 743 mmHg 94%
    06:00 +1°C° 0 mm 1 mps 743 mmHg 94%
    07:00 +1°C° 0 mm 1 mps 743 mmHg 94%
    08:00 +2°C° 0 mm 1 mps 743 mmHg 91%
    09:00 +3°C° 0 mm 1 mps 743 mmHg 88%
    10:00 +4°C° 0 mm 1 mps 743 mmHg 84%
    11:00 +6°C° 0 mm 1 mps 743 mmHg 81%
    12:00 +7°C° 0 mm 1 mps 743 mmHg 78%
    13:00 +8°C° 0 mm 1 mps 742 mmHg 74%
    14:00 +7°C° 0 mm 1 mps 742 mmHg 78%
    15:00 +7°C° 0 mm 1 mps 742 mmHg 82%
    16:00 +6°C° 0 mm 1 mps 742 mmHg 86%
    17:00 +5°C° 0 mm 1 mps 742 mmHg 87%
    18:00 +5°C° 0 mm 1 mps 742 mmHg 87%
    19:00 +5°C° 0 mm 1 mps 742 mmHg 88%
    20:00 +5°C° 0 mm 1 mps 741 mmHg 88%
    21:00 +5°C° 0 mm 1 mps 741 mmHg 89%
    22:00 +5°C° 0 mm 1 mps 741 mmHg 89%
    23:00 +5°C° 0 mm 1 mps 741 mmHg 89%

    24 November, Saturday

    Time Temperature Precipitation Wind Pressure Humidity
    00:00 +5°C° 0 mm 1 mps 741 mmHg 90%
    01:00 +5°C° 0 mm 1 mps 740 mmHg 90%
    02:00 +4°C° 0 mm 1 mps 740 mmHg 90%
    03:00 +4°C° 0 mm 1 mps 740 mmHg 91%
    04:00 +4°C° 0 mm 1 mps 739 mmHg 91%
    05:00 +4°C° 0 mm 1 mps 739 mmHg 92%
    06:00 +3°C° 0 mm 0 mps 739 mmHg 92%
    07:00 +3°C° 0 mm 0 mps 739 mmHg 92%
    08:00 +3°C° 0 mm 0 mps 739 mmHg 90%
    09:00 +4°C° 0 mm 0 mps 739 mmHg 89%
    10:00 +4°C° 0 mm 0 mps 739 mmHg 87%
    11:00 +5°C° 0.2 mm 0 mps 739 mmHg 87%
    12:00 +5°C° 0.2 mm 0 mps 739 mmHg 87%
    13:00 +5°C° 0.2 mm 0 mps 739 mmHg 87%
    14:00 +5°C° 0.4 mm 0 mps 739 mmHg 90%
    15:00 +5°C° 0.4 mm 0 mps 739 mmHg 92%
    16:00 +4°C° 0.4 mm 0 mps 739 mmHg 94%
    17:00 +4°C° 0.2 mm 0 mps 739 mmHg 94%
    18:00 +4°C° 0.2 mm 0 mps 739 mmHg 95%
    19:00 +4°C° 0.2 mm 0 mps 739 mmHg 95%
    20:00 +3°C° 0 mm 0 mps 739 mmHg 95%
    21:00 +3°C° 0 mm 0 mps 739 mmHg 96%
    22:00 +2°C° 0 mm 0 mps 739 mmHg 96%
    23:00 +2°C° 0 mm 0 mps 739 mmHg 96%
    Show more